User: anonymous   Login
Location: Churchill
(58.7670°N, 94.1670°W)
Time: 02:42:53
(UTC-06:00)
Language:

Cosmos 2142 Rocket - Orbit

View from above orbital plane
View from above orbital plane
View from above satellite
View from above satellite

Ground track
Ground track

The orbit data is extracted from the following two-line orbital elements,

1 21231U 91029B   14352.80287819  .00000141  00000-0  12995-3 0  6057
2 21231 082.9525 063.7284 0033861 254.5403 215.0237 13.75650673188477
Epoch (UTC): 18 December 2014 19:16:08
Eccentricity: 0.0033861
inclination: 82.9525°
perigee height: 954 km
apogee height: 1004 km
right ascension of ascending node: 63.7284°
argument of perigee: 254.5403°
revolutions per day: 13.75650673
mean anomaly at epoch: 215.0237°
orbit number at epoch: 18847

The dashed part of the orbit path shows where the satellite is in the earth's shadow,  

DLR